Hourly Weather Leszno

Today, 8 August, Saturday

Time Temperature Precipitation Wind Pressure Humidity
00:00 +24°C° 0 mm 3 mps 758 mmHg 73%
01:00 +24°C° 0 mm 3 mps 758 mmHg 74%
02:00 +22°C° 0 mm 3 mps 758 mmHg 75%
03:00 +23°C° 0 mm 2 mps 758 mmHg 77%
04:00 +21°C° 0 mm 2 mps 758 mmHg 79%
05:00 +23°C° 0 mm 2 mps 758 mmHg 77%
06:00 +24°C° 0 mm 2 mps 758 mmHg 74%
07:00 +26°C° 0 mm 2 mps 758 mmHg 70%
08:00 +28°C° 0 mm 2 mps 758 mmHg 64%
09:00 +29°C° 0 mm 2 mps 758 mmHg 58%
10:00 +31°C° 0 mm 2 mps 758 mmHg 52%
11:00 +31°C° 0 mm 2 mps 758 mmHg 49%
12:00 +32°C° 0 mm 2 mps 757 mmHg 45%
13:00 +34°C° 0 mm 2 mps 757 mmHg 41%
14:00 +34°C° 0 mm 2 mps 757 mmHg 43%
15:00 +32°C° 0 mm 2 mps 757 mmHg 44%
16:00 +32°C° 0 mm 2 mps 756 mmHg 46%
17:00 +31°C° 0 mm 2 mps 756 mmHg 50%
18:00 +29°C° 0 mm 2 mps 756 mmHg 55%
19:00 +28°C° 0 mm 2 mps 756 mmHg 60%
20:00 +27°C° 0 mm 2 mps 756 mmHg 63%
21:00 +26°C° 0 mm 2 mps 756 mmHg 66%
22:00 +25°C° 0 mm 2 mps 756 mmHg 69%
23:00 +25°C° 0 mm 2 mps 756 mmHg 71%

Tomorrow, 9 August, Sunday

Time Temperature Precipitation Wind Pressure Humidity
00:00 +24°C° 0 mm 2 mps 756 mmHg 73%
01:00 +24°C° 0 mm 1 mps 756 mmHg 75%
02:00 +23°C° 0 mm 1 mps 756 mmHg 76%
03:00 +23°C° 0 mm 1 mps 756 mmHg 77%
04:00 +22°C° 0 mm 1 mps 756 mmHg 78%
05:00 +24°C° 0 mm 1 mps 756 mmHg 75%
06:00 +25°C° 0 mm 1 mps 756 mmHg 72%
07:00 +26°C° 0 mm 1 mps 756 mmHg 68%
08:00 +27°C° 0 mm 1 mps 756 mmHg 63%
09:00 +29°C° 0 mm 2 mps 756 mmHg 58%
10:00 +30°C° 0 mm 2 mps 756 mmHg 53%
11:00 +31°C° 0 mm 2 mps 756 mmHg 50%
12:00 +31°C° 0 mm 2 mps 755 mmHg 48%
13:00 +32°C° 0 mm 2 mps 755 mmHg 45%
14:00 +32°C° 0 mm 2 mps 755 mmHg 46%
15:00 +32°C° 0 mm 2 mps 755 mmHg 46%
16:00 +32°C° 0 mm 2 mps 755 mmHg 46%
17:00 +31°C° 0 mm 2 mps 754 mmHg 51%
18:00 +29°C° 0 mm 2 mps 754 mmHg 56%
19:00 +28°C° 0 mm 2 mps 754 mmHg 61%
20:00 +27°C° 0.1 mm 2 mps 755 mmHg 63%
21:00 +26°C° 0.1 mm 2 mps 755 mmHg 65%
22:00 +25°C° 0.1 mm 1 mps 755 mmHg 68%
23:00 +25°C° 0.1 mm 1 mps 755 mmHg 70%

Day after tomorrow, 10 August, Monday

Time Temperature Precipitation Wind Pressure Humidity
00:00 +24°C° 0.1 mm 2 mps 755 mmHg 72%
01:00 +24°C° 0.1 mm 2 mps 754 mmHg 74%
02:00 +23°C° 0 mm 1 mps 754 mmHg 75%
03:00 +23°C° 0 mm 1 mps 754 mmHg 77%
04:00 +22°C° 0 mm 1 mps 754 mmHg 78%
05:00 +23°C° 0 mm 1 mps 754 mmHg 77%
06:00 +24°C° 0 mm 2 mps 754 mmHg 76%
07:00 +25°C° 0 mm 2 mps 754 mmHg 75%
08:00 +26°C° 0 mm 2 mps 755 mmHg 69%
09:00 +28°C° 0 mm 2 mps 755 mmHg 63%
10:00 +29°C° 0 mm 3 mps 755 mmHg 57%
11:00 +30°C° 0 mm 3 mps 755 mmHg 53%
12:00 +31°C° 0 mm 3 mps 755 mmHg 49%
13:00 +32°C° 0 mm 4 mps 754 mmHg 45%
14:00 +32°C° 0 mm 4 mps 754 mmHg 45%
15:00 +32°C° 0 mm 4 mps 754 mmHg 46%
16:00 +32°C° 0 mm 4 mps 754 mmHg 46%
17:00 +29°C° 0 mm 3 mps 754 mmHg 52%
18:00 +28°C° 0 mm 3 mps 754 mmHg 58%
19:00 +26°C° 0 mm 2 mps 754 mmHg 64%
20:00 +25°C° 0 mm 2 mps 754 mmHg 66%
21:00 +24°C° 0 mm 2 mps 755 mmHg 68%
22:00 +23°C° 0 mm 2 mps 755 mmHg 69%
23:00 +23°C° 0 mm 2 mps 755 mmHg 71%

11 August, Tuesday

Time Temperature Precipitation Wind Pressure Humidity
00:00 +21°C° 0 mm 2 mps 755 mmHg 73%
01:00 +21°C° 0 mm 2 mps 755 mmHg 74%
02:00 +20°C° 0 mm 2 mps 755 mmHg 77%
03:00 +20°C° 0 mm 2 mps 755 mmHg 79%
04:00 +19°C° 0 mm 2 mps 755 mmHg 82%
05:00 +20°C° 0 mm 3 mps 755 mmHg 79%
06:00 +21°C° 0 mm 3 mps 756 mmHg 76%
07:00 +22°C° 0 mm 3 mps 756 mmHg 74%
08:00 +25°C° 0 mm 3 mps 756 mmHg 65%
09:00 +27°C° 0 mm 3 mps 756 mmHg 57%
10:00 +28°C° 0 mm 3 mps 756 mmHg 49%
11:00 +29°C° 0 mm 4 mps 756 mmHg 45%
12:00 +30°C° 0 mm 4 mps 756 mmHg 42%
13:00 +32°C° 0 mm 4 mps 756 mmHg 38%
14:00 +30°C° 0 mm 4 mps 756 mmHg 39%
15:00 +30°C° 0 mm 4 mps 755 mmHg 39%
16:00 +30°C° 0 mm 4 mps 755 mmHg 40%
17:00 +29°C° 0 mm 3 mps 755 mmHg 46%
18:00 +27°C° 0 mm 2 mps 755 mmHg 51%
19:00 +26°C° 0 mm 2 mps 755 mmHg 57%
20:00 +25°C° 0 mm 2 mps 756 mmHg 59%
21:00 +24°C° 0 mm 2 mps 756 mmHg 61%
22:00 +22°C° 0 mm 3 mps 756 mmHg 64%
23:00 +21°C° 0 mm 3 mps 756 mmHg 66%

12 August, Wednesday

Time Temperature Precipitation Wind Pressure Humidity
00:00 +20°C° 0 mm 3 mps 757 mmHg 67%
01:00 +19°C° 0 mm 3 mps 757 mmHg 69%
02:00 +19°C° 0 mm 3 mps 757 mmHg 71%
03:00 +18°C° 0 mm 3 mps 757 mmHg 73%
04:00 +17°C° 0 mm 3 mps 757 mmHg 76%
05:00 +18°C° 0 mm 3 mps 757 mmHg 73%
06:00 +19°C° 0 mm 3 mps 757 mmHg 71%
07:00 +20°C° 0 mm 4 mps 757 mmHg 69%
08:00 +21°C° 0 mm 4 mps 757 mmHg 63%
09:00 +23°C° 0 mm 4 mps 757 mmHg 56%
10:00 +25°C° 0 mm 4 mps 757 mmHg 50%
11:00 +26°C° 0 mm 4 mps 757 mmHg 46%
12:00 +27°C° 0 mm 4 mps 757 mmHg 42%
13:00 +27°C° 0 mm 4 mps 756 mmHg 37%
14:00 +27°C° 0 mm 4 mps 756 mmHg 38%
15:00 +27°C° 0 mm 4 mps 756 mmHg 39%
16:00 +27°C° 0 mm 4 mps 756 mmHg 40%
17:00 +25°C° 0 mm 4 mps 756 mmHg 46%
18:00 +24°C° 0 mm 3 mps 756 mmHg 52%
19:00 +21°C° 0 mm 3 mps 755 mmHg 57%
20:00 +20°C° 0 mm 3 mps 756 mmHg 57%
21:00 +19°C° 0 mm 3 mps 756 mmHg 57%
22:00 +18°C° 0 mm 3 mps 756 mmHg 58%
23:00 +18°C° 0 mm 3 mps 756 mmHg 59%

13 August, Thursday

Time Temperature Precipitation Wind Pressure Humidity
00:00 +17°C° 0 mm 3 mps 756 mmHg 61%
01:00 +16°C° 0 mm 3 mps 755 mmHg 63%
02:00 +16°C° 0 mm 3 mps 755 mmHg 66%
03:00 +16°C° 0 mm 3 mps 755 mmHg 69%
04:00 +14°C° 0 mm 3 mps 755 mmHg 72%
05:00 +16°C° 0 mm 3 mps 755 mmHg 70%
06:00 +18°C° 0 mm 3 mps 755 mmHg 68%
07:00 +19°C° 0 mm 3 mps 755 mmHg 65%
08:00 +21°C° 0 mm 4 mps 755 mmHg 59%
09:00 +22°C° 0 mm 4 mps 755 mmHg 53%
10:00 +25°C° 0 mm 4 mps 755 mmHg 47%
11:00 +26°C° 0 mm 4 mps 754 mmHg 44%
12:00 +27°C° 0 mm 4 mps 754 mmHg 42%
13:00 +28°C° 0 mm 4 mps 754 mmHg 39%
14:00 +28°C° 0 mm 4 mps 754 mmHg 39%
15:00 +28°C° 0 mm 4 mps 753 mmHg 39%
16:00 +28°C° 0 mm 4 mps 753 mmHg 39%
17:00 +26°C° 0 mm 4 mps 753 mmHg 45%
18:00 +24°C° 0 mm 3 mps 753 mmHg 50%
19:00 +22°C° 0 mm 3 mps 753 mmHg 56%
20:00 +21°C° 0 mm 3 mps 753 mmHg 57%
21:00 +20°C° 0 mm 3 mps 753 mmHg 59%
22:00 +19°C° 0 mm 3 mps 753 mmHg 60%
23:00 +18°C° 0 mm 3 mps 753 mmHg 62%
Show more